Regional Weather Roundup
Issued by NWS Cleveland, OH

Home | Current Version | Previous Version | Graphics & Text | Print | Product List | Glossary On
Versions: 1 2 3 4 5 6 7 8 9 10 11 12 13 14 15 16 17 18 19 20 21 22 23 24 25 26 27 28 29 30 31 32 33 34 35 36 37 38 39 40 41 42 43 44 45 46 47 48 49 50
000
ASUS41 KCLE 150200
RWRCLE
OHIO REGIONAL WEATHER ROUNDUP
NATIONAL WEATHER SERVICE WILMINGTON, OH
1000 PM EDT SUN SEP 14 2014

NOTE: "FAIR" INDICATES FEW OR NO CLOUDS BELOW 12,000 FEET WITH NO
SIGNIFICANT WEATHER AND/OR OBSTRUCTIONS TO VISIBILITY.

OHZ001>008-015>018-024>027-034-035-043-044-150300-
   NORTHWEST OHIO

CITY           SKY/WX    TMP DP  RH WIND       PRES   REMARKS
DEFIANCE       CLEAR     52  48  86 CALM      30.22S
FINDLAY        CLEAR     54  47  77 CALM      30.21S
TOLEDO EXPRESS CLEAR     49  47  93 CALM      30.22R
TOLEDO METCALF CLEAR     53  46  77 E5        30.23S
LIMA           CLEAR     53  48  83 CALM      30.22S
$$

OHZ009>014-019>023-028>033-038-089-150300-
   NORTHEAST OHIO

CITY           SKY/WX    TMP DP  RH WIND       PRES   REMARKS
CLE-HOPKINS    CLEAR     53  47  79 CALM      30.25S
CLE-LAKEFRONT  CLEAR     58  48  69 CALM      30.22S
CUY CO. ARPT   CLEAR     50  50 100 CALM      30.24S
LORAIN-ELYRIA  CLEAR     52  47  83 S3        30.23F
ASHTABULA      CLEAR     47  45  93 CALM      30.24S
AKRON-CANTON   PTCLDY    53  44  71 CALM      30.22F
WOOSTER        NOT AVBL
MANSFIELD      CLEAR     49  44  83 N3        30.23R
YOUNGSTOWN     CLEAR     51  46  83 CALM      30.23S
$$

OHZ042-051>053-060>062-070>072-077>081-150300-
  SOUTHWEST OHIO

CITY           SKY/WX    TMP DP  RH WIND       PRES   REMARKS
CINC-COVINGTON CLEAR     57  50  77 CALM      30.22R
CINC-LUNKEN    CLEAR     54  51  90 CALM      30.23R
HAMILTON       CLEAR     53  51  93 CALM      30.22S
DAYTON         NOT AVBL
WRIGHT-PAT AFB NOT AVBL
DAYTON GENERAL CLEAR     56  49  77 CALM      30.21S
WILMINGTON     CLEAR     52  47  83 CALM      30.22S
$$

OHZ036-037-039>041-045>050-054>059-063>069-073>076-082>088-150300-
  CENTRAL AND SOUTHEAST OHIO

CITY           SKY/WX    TMP DP  RH WIND       PRES   REMARKS
COLUMBUS       CLEAR     57  47  69 E3        30.22S
OSU AIRPORT    CLEAR     55  47  74 CALM      30.22S
BOLTON FIELD   NOT AVBL
RICKENBACK AFB NOT AVBL
NEWARK         CLEAR     49  47  93 CALM      30.22S
MARION         CLEAR     51  45  79 CALM      30.23R
LANCASTER      CLEAR     50  47  89 CALM      30.23R
ZANESVILLE     CLEAR     53  46  77 CALM      30.23S
NEW PHILLY     CLEAR     48  47  96 CALM      30.24S
$$



USA.gov is the U.S. government's official web portal to all federal, state and local government web resources and services.